Weather History for Lima, OH

Change the Weather History Date:

Friday, October 12, 2012

  Actual Average (KFDY) Record (KFDY)
Temperature  
Mean Temperature 46 °F -  
Max Temperature 55 °F 63 °F 84 °F (2008)
Min Temperature 37 °F 43 °F 30 °F (1957)
Degree Days  
Heating Degree Days 20    
Moisture  
Dew Point 31 °F    
Average Humidity 56    
Maximum Humidity 76    
Minimum Humidity 28    
Precipitation  
Precipitation 0.00 in - - ()
Sea Level Pressure  
Sea Level Pressure 30.33 in    
Wind  
Wind Speed 8 mph (NE)    
Max Wind Speed 13 mph    
Max Gust Speed 18 mph    
Visibility 10 miles    
Events      
Averages and records for this station are not official NWS values.
T = Trace of Precipitation, MM = Missing Value Source: NWS Daily Summary

Daily Weather History Graph

Daily Weather History Graph

Search for Another Location

Airport:

Trip Planner

Search our weather history database for the weather conditions in past years. The results will help you decide how hot, cold, wet, or windy it might be!

Date:

Astronomy

Oct. 12, 2012 Rise Set
Actual Time 7:44 AM EDT 6:59 PM EDT
Civil Twilight 7:17 AM EDT 7:27 PM EDT
Nautical Twilight 6:45 AM EDT 7:58 PM EDT
Astronomical Twilight 6:13 AM EDT 8:30 PM EDT
Moon 4:25 AM EDT (10/12) 5:09 PM EDT (10/12)
Length of Visible Light 12h 10m
Length of Day
11h 15m
Waning Crescent, 11% of the Moon is Illuminated
Oct 12
Waning Crescent
Oct 15
New
Oct 21
First Quarter
Oct 29
Full
Nov 6
Last Quarter

Hourly Weather History & Observations

Time (EDT) Temp. Windchill Dew Point Humidity Pressure Visibility Wind Dir Wind Speed Gust Speed Precip Events Conditions
12:53 AM 51.1 °F - 34.0 °F 52% 30.18 in 10.0 mi SW 5.8 mph - N/A   Overcast
1:53 AM 50.0 °F - 36.0 °F 59% 30.18 in 10.0 mi WSW 4.6 mph - N/A   Overcast
2:53 AM 48.0 °F - 37.0 °F 66% 30.19 in 10.0 mi West 4.6 mph - N/A   Scattered Clouds
3:53 AM 48.9 °F - 37.9 °F 66% 30.20 in 10.0 mi NNE 11.5 mph - N/A   Partly Cloudy
4:53 AM 46.9 °F - 37.0 °F 68% 30.24 in 10.0 mi North 12.7 mph - N/A   Mostly Cloudy
5:53 AM 46.0 °F 41.0 °F 35.1 °F 66% 30.28 in 10.0 mi NNE 10.4 mph - N/A   Overcast
6:08 AM 44.6 °F 38.8 °F 35.6 °F 71% 30.28 in 10.0 mi NNE 11.5 mph - N/A   Overcast
6:53 AM 44.1 °F 40.1 °F 35.1 °F 71% 30.31 in 10.0 mi NNE 6.9 mph - N/A   Overcast
7:53 AM 44.1 °F 40.8 °F 35.1 °F 71% 30.34 in 10.0 mi NNE 5.8 mph - N/A   Overcast
8:53 AM 44.1 °F 38.6 °F 33.1 °F 65% 30.37 in 10.0 mi North 10.4 mph - N/A   Overcast
9:53 AM 46.0 °F 40.2 °F 34.0 °F 63% 30.40 in 10.0 mi NNE 12.7 mph - N/A   Partly Cloudy
10:53 AM 48.0 °F - 30.0 °F 50% 30.41 in 10.0 mi North 11.5 mph 18.4 mph N/A   Clear
1:53 PM 53.1 °F - 24.1 °F 32% 30.40 in 10.0 mi NNE 5.8 mph - N/A   Clear
2:53 PM 54.0 °F - 24.1 °F 31% 30.39 in 10.0 mi ENE 9.2 mph - N/A   Clear
3:53 PM 54.0 °F - 21.0 °F 28% 30.38 in 10.0 mi NNE 6.9 mph - N/A   Clear
4:53 PM 54.0 °F - 23.0 °F 30% 30.38 in 10.0 mi East 8.1 mph - N/A   Clear
5:53 PM 53.1 °F - 23.0 °F 31% 30.38 in 10.0 mi ENE 5.8 mph - N/A   Clear
6:53 PM 48.9 °F - 26.1 °F 41% 30.39 in 10.0 mi ENE 5.8 mph - N/A   Clear
7:53 PM 44.1 °F 42.5 °F 28.0 °F 53% 30.40 in 10.0 mi ENE 3.5 mph - N/A   Clear
8:53 PM 39.0 °F 34.8 °F 28.9 °F 67% 30.39 in 10.0 mi East 5.8 mph - N/A   Clear
10:53 PM 37.0 °F 31.0 °F 28.9 °F 73% 30.40 in 10.0 mi East 8.1 mph - N/A   Clear
11:53 PM 37.0 °F 31.0 °F 30.0 °F 76% 30.39 in 10.0 mi East 8.1 mph - N/A   Clear